Tracking 23764 objects as of 17-Oct-2021
HD Live streaming from Space Station
objects crossing your sky now

DELTA 1 DEB

Track DELTA 1 DEB now!
10-day predictions


NORAD ID: 8679
Int'l Code: 1975-004G
Perigee: 575.6 km
Apogee: 871.2 km
Inclination: 98.7 °
Period: 99.1 minutes
Semi major axis: 7094 km
RCS: 0.0087 m2 (small)
Launch date: January 22, 1975
Source: United States (US)
Launch site: AIR FORCE WESTERN TEST RANGE (AFWTR)

Note: This is SATELLITE DEBRIS
aabbcc
Your satellite tracking list
Your tracking list is empty




NASA's NSSDC Master Catalog

Two Line Element Set (TLE):
1 08679U 75004G   21289.51967604  .00000922  00000-0  17982-3 0  9999
2 08679  98.7095  33.1331 0208357 353.5825   6.2708 14.52886235391998
Source of the keplerian elements: AFSPC